History for DABS

Tebessa, DZ

Daily Weekly Monthly
Daily Summary for Wednesday, January 18, 2017
  Actual: Average: Record:
Temperature
Mean Temperature: 36 °F / 2 °C - :  
Max Temperature: 42 °F / 5 °C 55 °F / 13 °C - ()
Min Temperature: 30 °F / 0 °C 35 °F / 2 °C - ()
Degree Days
Heating Degree Days: 29    
Moisture
Dew Point 31 °F / -1 °C    
Average Humidity 79    
Maximum Humidity 87    
Minimum Humidity 63    
Precipitation
Precipitation 0.00 in / 0.0 cm 0.04 in / 1.0 cm - ()
Sea Level Pressure
Sea Level Pressure 29.87 in / 1011.38 hPa   
Wind
Wind Speed 12 mph / 20 km/h ()  
Max Wind Speed 18 mph / 30 km/h   
Max Gust Speed -   
Visibility 6.6 miles / 10.8 kilometers   
Events     

Key: T is trace of precipitation, MM is missing value
Source: Averaged Metar Reports

Graphs

Observations

History Graphs Observations

Obs Go Here...

Features

Weather Apps

WunderRadio

Weather Underground Apps
Check out our wide variety of mobile and setup applications.

Weather Underground Applications

Top of Page

© Copyright 2017
The Weather Company, LLC
Time(CET)TemperatureDew PointHumidity Sea Level Pressure Visibility Wind DirectionWind SpeedGust SpeedPrecipitationEvents Conditions
12:00 AM 32.0 °F / 0.0 °C 28.4 °F / -2.0 °C 87% 29.74 in / 1007 hPa 6.2 miles / 10.0 kilometers West 18.4 mph / 29.6 km/h - N/A   Partly Cloudy
1:00 AM 32 °F / 0 °C 26 °F / -3 °C 71%  in /  hPa 6 miles / 10 kilometers West 18.4 mph / 29.6 km/h - -   Scattered Clouds
1:00 AM 32.0 °F / 0.0 °C 26.6 °F / -3.0 °C 80% 29.77 in / 1008 hPa 6.2 miles / 10.0 kilometers West 18.4 mph / 29.6 km/h - N/A   Partly Cloudy
2:00 AM 32.0 °F / 0.0 °C 26.6 °F / -3.0 °C 80% 29.77 in / 1008 hPa 6.2 miles / 10.0 kilometers West 18.4 mph / 29.6 km/h - N/A   Partly Cloudy
3:00 AM 32.0 °F / 0.0 °C 26.6 °F / -3.0 °C 80% 29.77 in / 1008 hPa 6.2 miles / 10.0 kilometers West 18.4 mph / 29.6 km/h - N/A   Partly Cloudy
4:00 AM 31 °F / -0 °C 27 °F / -3 °C 81%  in /  hPa 6 miles / 10 kilometers WNW 11.5 mph / 18.5 km/h - -   Partly Cloudy
4:00 AM 32.0 °F / 0.0 °C 26.6 °F / -3.0 °C 80% 29.77 in / 1008 hPa 6.2 miles / 10.0 kilometers WNW 11.5 mph / 18.5 km/h - N/A   Scattered Clouds
5:00 AM 32.0 °F / 0.0 °C 26.6 °F / -3.0 °C 80% 29.77 in / 1008 hPa 6.2 miles / 10.0 kilometers WNW 9.2 mph / 14.8 km/h - N/A   Mostly Cloudy
6:00 AM 30.2 °F / -1.0 °C 26.6 °F / -3.0 °C 86% 29.77 in / 1008 hPa 6.2 miles / 10.0 kilometers West 11.5 mph / 18.5 km/h - N/A   Mostly Cloudy
7:00 AM 31 °F / -1 °C 27 °F / -3 °C 79%  in /  hPa 6 miles / 10 kilometers West 11.5 mph / 18.5 km/h - -   Partly Cloudy
7:00 AM 30.2 °F / -1.0 °C 26.6 °F / -3.0 °C 86% 29.77 in / 1008 hPa 6.2 miles / 10.0 kilometers West 11.5 mph / 18.5 km/h - N/A   Scattered Clouds
8:00 AM 32.0 °F / 0.0 °C 26.6 °F / -3.0 °C 80% 29.83 in / 1010 hPa 6.2 miles / 10.0 kilometers NW 4.6 mph / 7.4 km/h - N/A   Scattered Clouds
9:00 AM 33.8 °F / 1.0 °C 30.2 °F / -1.0 °C 87% 29.86 in / 1011 hPa 6.2 miles / 10.0 kilometers NW 13.8 mph / 22.2 km/h - N/A   Scattered Clouds
10:00 AM 37 °F / 3 °C 32 °F / 0 °C 77%  in /  hPa 9 miles / 15 kilometers West 18.4 mph / 29.6 km/h - -   Mostly Cloudy
10:00 AM 37.4 °F / 3.0 °C 32.0 °F / 0.0 °C 81% 29.89 in / 1012 hPa 6.2 miles / 10.0 kilometers West 18.4 mph / 29.6 km/h - N/A   Scattered Clouds
11:00 AM 41.0 °F / 5.0 °C 33.8 °F / 1.0 °C 76% 29.89 in / 1012 hPa 6.2 miles / 10.0 kilometers West 9.2 mph / 14.8 km/h - N/A   Scattered Clouds
12:00 PM 41.0 °F / 5.0 °C 32.0 °F / 0.0 °C 70% 29.89 in / 1012 hPa 6.2 miles / 10.0 kilometers West 16.1 mph / 25.9 km/h - N/A   Scattered Clouds
1:00 PM 43 °F / 6 °C 35 °F / 2 °C 63%  in /  hPa 9 miles / 15 kilometers West 13.8 mph / 22.2 km/h - -   Mostly Cloudy
1:00 PM 42.8 °F / 6.0 °C 35.6 °F / 2.0 °C 76% 29.89 in / 1012 hPa 6.2 miles / 10.0 kilometers West 13.8 mph / 22.2 km/h - N/A   Mostly Cloudy
2:00 PM 42.8 °F / 6.0 °C 35.6 °F / 2.0 °C 76% 29.89 in / 1012 hPa 6.2 miles / 10.0 kilometers West 16.1 mph / 25.9 km/h - N/A   Mostly Cloudy
3:00 PM 41.0 °F / 5.0 °C 33.8 °F / 1.0 °C 76% 29.89 in / 1012 hPa 6.2 miles / 10.0 kilometers West 16.1 mph / 25.9 km/h - N/A   Mostly Cloudy
4:00 PM 41 °F / 5 °C 34 °F / 1 °C 68%  in /  hPa 9 miles / 15 kilometers WNW 13.8 mph / 22.2 km/h - -   Mostly Cloudy
4:00 PM 41.0 °F / 5.0 °C 33.8 °F / 1.0 °C 76% 29.89 in / 1012 hPa 6.2 miles / 10.0 kilometers WNW 13.8 mph / 22.2 km/h - N/A   Mostly Cloudy
5:00 PM 41.0 °F / 5.0 °C 33.8 °F / 1.0 °C 76% 29.92 in / 1013 hPa 6.2 miles / 10.0 kilometers West 11.5 mph / 18.5 km/h - N/A   Mostly Cloudy
6:00 PM 39.2 °F / 4.0 °C 32.0 °F / 0.0 °C 75% 29.95 in / 1014 hPa 6.2 miles / 10.0 kilometers WNW 11.5 mph / 18.5 km/h - N/A   Scattered Clouds
7:00 PM 36 °F / 2 °C 31 °F / -0 °C 77%  in /  hPa 9 miles / 15 kilometers West 6.9 mph / 11.1 km/h - -   Scattered Clouds
7:00 PM 35.6 °F / 2.0 °C 32.0 °F / 0.0 °C 87% 29.98 in / 1015 hPa 6.2 miles / 10.0 kilometers West 6.9 mph / 11.1 km/h - N/A   Partly Cloudy
8:00 PM 35.6 °F / 2.0 °C 32.0 °F / 0.0 °C 87% 29.98 in / 1015 hPa 6.2 miles / 10.0 kilometers West 6.9 mph / 11.1 km/h - N/A   Partly Cloudy
9:00 PM 35.6 °F / 2.0 °C 30.2 °F / -1.0 °C 81% 30.01 in / 1016 hPa 6.2 miles / 10.0 kilometers West 6.9 mph / 11.1 km/h - N/A   Partly Cloudy
10:00 PM 35 °F / 2 °C 32 °F / -0 °C 83%  in /  hPa 9 miles / 15 kilometers WSW 4.6 mph / 7.4 km/h - -   Scattered Clouds
10:00 PM 35.6 °F / 2.0 °C 32.0 °F / 0.0 °C 87% 30.01 in / 1016 hPa 6.2 miles / 10.0 kilometers WSW 4.6 mph / 7.4 km/h - N/A   Partly Cloudy
11:00 PM 35.6 °F / 2.0 °C 32.0 °F / 0.0 °C 87% 30.01 in / 1016 hPa 6.2 miles / 10.0 kilometers SW 4.6 mph / 7.4 km/h - N/A   Partly Cloudy